OPS 5712 (P/L 160) (2826 NORAD) Tracking and Keplerian Element Data

This shows tracking and keplerian element data for the satellite.

Feedback or suggestion? Click here.




ElementValue
Catalog2826
NameOPS 5712 (P/L 160)
Epoch Orbit99285
Epoch Day34.90278684
Epoch Year2025
RAAN170.1661
Inclination69.9212
Eccentricity0.000271
Argument of Perigee331.6564
Mean Anonmoly28.443
Mean Motion14.67184925
Decay Rate0.00015566
L11 02826U 67053A 25034.90278684 .00015566 00000+0 27688-2 0 9992
L22 02826 69.9212 170.1661 0002710 331.6564 28.4430 14.67184925992850



Live tracking and technical data element details for OPS 5712 (P/L 160) (NORAD 2826). OPS 5712 (P/L 160) can be tracked NOW for your location showing map with azimuth and elevation plus other details from your city location.







IsCatalogInMostPopularTable: catalog: 2826, numindb: 512
Update: records affected: 1



GetName: 2826 OPS 5712 (P/L 160)

Hit Count: updated at: Thu, 15 May 2025 10:56:13 GMT